N5ZPR Weather Reports


Display with metric or nautical units.
time (UTC)temp
F
wind
direction
speed
MPH
gust
MPH
rain 1hr
in
rain 24hr
in
rain mn
in
humidity
%
barometer
mb
20260505172003 82 175 5.0 9.0 0.00 0.00 0.00 68 1003.3
20260505171004 82 213 3.0 12.0 0.00 0.00 0.00 69 1003.3
20260505170003 82 194 3.0 12.0 0.00 0.00 0.00 69 1002.8
20260505165004 82 183 6.0 20.0 0.00 0.00 0.00 67 1002.8
20260505164003 82 215 5.0 12.0 0.00 0.00 0.00 70 1002.8
20260505163004 81 172 5.0 12.0 0.00 0.00 0.00 70 1002.8
20260505162003 80 191 5.0 12.0 0.00 0.00 0.00 72 1002.8
20260505161003 80 178 5.0 10.0 0.00 0.00 0.00 73 1002.8
20260505153004 77 172 6.0 12.0 0.00 0.00 0.00 76 1003.1
20260505152004 78 190 5.0 12.0 0.00 0.00 0.00 76 1002.9
20260505125004 70 255 3.0 12.0 0.00 0.00 0.00 88 1002.1
20260505124003 70 195 4.0 10.0 0.00 0.00 0.00 88 1002.1
20260505123003 70 195 5.0 10.0 0.00 0.00 0.00 88 1002.1
20260505122003 70 209 3.0 9.0 0.00 0.00 0.00 89 1002.1
20260505121004 70 210 3.0 10.0 0.00 0.00 0.00 89 1001.8
20260505120004 69 211 4.0 10.0 0.00 0.00 0.00 89 1001.8
20260505115003 69 168 3.0 12.0 0.00 0.00 0.00 89 1001.8
20260505114004 69 241 2.0 12.0 0.00 0.00 0.00 89 1001.8
20260505113003 69 205 5.0 12.0 0.00 0.00 0.00 89 1001.8
20260505112003 70 185 3.0 10.0 0.00 0.00 0.00 88 1001.8
20260505111003 70 184 6.0 12.0 0.00 0.00 0.00 89 1001.6
20260505101003 70 163 5.0 10.0 0.00 0.00 0.00 87 1001.7
20260505100004 71 214 5.0 10.0 0.00 0.00 0.00 86 1001.7
20260505095003 71 170 5.0 12.0 0.00 0.00 0.00 86 1001.7
20260505094003 71 196 3.0 14.0 0.00 0.00 0.00 86 1001.9
20260505093004 71 156 5.0 10.0 0.00 0.00 0.00 86 1002.2
20260505091003 71 196 5.0 13.0 0.00 0.00 0.00 86 1002.2
20260505090004 71 194 5.0 12.0 0.00 0.00 0.00 86 1002.2
20260505083004 71 171 4.0 12.0 0.00 0.00 0.00 85 1002.1
20260505082003 71 192 4.0 12.0 0.00 0.00 0.00 85 1002.1
20260505081003 71 176 5.0 12.0 0.00 0.00 0.00 85 1002.2
20260505080004 71 170 3.0 12.0 0.00 0.00 0.00 84 1002.5
20260505075003 71 202 4.0 10.0 0.00 0.00 0.00 84 1002.7
20260505074004 71 179 5.0 9.0 0.00 0.00 0.00 83 1002.7
20260505070004 72 174 2.0 10.0 0.00 0.00 0.00 81 1003.4
20260505065003 72 195 3.0 9.0 0.00 0.00 0.00 81 1003.3
20260505064003 72 145 4.0 9.0 0.00 0.00 0.00 80 1003.3
20260505063004 72 247 5.0 10.0 0.00 0.00 0.00 80 1003.3
20260505061004 72 174 3.0 9.0 0.00 0.00 0.00 78 1003.3
20260505060004 73 169 2.0 10.0 0.00 0.00 0.00 77 1003.3
20260505055004 73 194 5.0 12.0 0.00 0.00 0.00 76 1003.3
20260505054003 73 170 5.0 9.0 0.00 0.00 0.00 75 1003.3
20260505053003 74 181 5.0 9.0 0.00 0.00 0.00 75 1003.7
20260505052003 74 150 4.0 10.0 0.00 0.00 0.00 74 1003.7
20260505051004 74 165 3.0 9.0 0.00 0.00 0.00 73 1003.8
20260505041003 74 172 3.0 12.0 0.00 0.00 0.00 73 1004.0
20260505040004 74 199 5.0 9.0 0.00 0.00 0.00 73 1004.0
20260505035003 74 174 3.0 10.0 0.00 0.00 0.00 73 1004.0
20260505034004 74 134 5.0 12.0 0.00 0.00 0.00 73 1003.8
20260505032003 74 157 5.0 12.0 0.00 0.00 0.00 73 1003.9
20260505031004 74 175 2.0 9.0 0.00 0.00 0.00 73 1003.9
20260505025003 74 153 3.0 9.0 0.00 0.00 0.00 73 1003.5
20260505024003 74 131 3.0 7.0 0.00 0.00 0.00 72 1003.5
20260505023004 75 131 4.0 9.0 0.00 0.00 0.00 72 1003.5
20260505022004 75 112 3.0 8.0 0.00 0.00 0.00 71 1003.5
20260505021003 75 136 3.0 8.0 0.00 0.00 0.00 70 1003.6
20260505020003 75 168 2.0 8.0 0.00 0.00 0.00 70 1003.6
20260505015004 75 145 3.0 9.0 0.00 0.00 0.00 70 1003.6
20260505012004 76 137 2.0 7.0 0.00 0.00 0.00 68 1003.9
20260505011004 76 163 4.0 12.0 0.00 0.00 0.00 67 1003.9
20260505010004 76 178 3.0 10.0 0.00 0.00 0.00 67 1003.9
20260505005005 77 182 3.0 9.0 0.00 0.00 0.00 66 1003.9
20260505004004 77 176 5.0 14.0 0.00 0.00 0.00 66 1003.9
20260505003003 77 131 5.0 9.0 0.00 0.00 0.00 66 1003.9
20260505002003 77 166 3.0 12.0 0.00 0.00 0.00 65 1003.9
20260505001003 78 148 3.0 13.0 0.00 0.00 0.00 65 1003.9
20260505000004 78 187 6.0 12.0 0.00 0.00 0.00 64 1004.1
20260504234004 79 132 3.0 12.0 0.00 0.00 0.00 63 1004.2
20260504232003 79 130 4.0 13.0 0.00 0.00 0.00 63 1004.3
20260504231004 79 179 2.0 12.0 0.00 0.00 0.00 62 1004.4
20260504230004 79 164 5.0 12.0 0.00 0.00 0.00 61 1004.4
20260504225004 80 186 5.0 12.0 0.00 0.00 0.00 60 1005.0
20260504224003 80 181 6.0 14.0 0.00 0.00 0.00 60 1005.0
20260504223004 80 193 4.0 12.0 0.00 0.00 0.00 61 1005.0
20260504222004 81 192 6.0 13.0 0.00 0.00 0.00 59 1005.0
20260504221003 81 146 2.0 9.0 0.00 0.00 0.00 60 1005.0
20260504220004 81 161 4.0 14.0 0.00 0.00 0.00 59 1005.0
20260504215003 82 203 5.0 12.0 0.00 0.00 0.00 58 1005.0
20260504214003 82 200 3.0 12.0 0.00 0.00 0.00 58 1005.0
20260504213004 82 169 4.0 10.0 0.00 0.00 0.00 57 1005.2
20260504211003 83 192 7.0 12.0 0.00 0.00 0.00 55 1006.1
20260504210004 82 189 5.0 13.0 0.00 0.00 0.00 57 1006.1
20260504205003 83 159 6.0 12.0 0.00 0.00 0.00 56 1006.1
20260504204004 82 135 5.0 12.0 0.00 0.00 0.00 57 1006.1
20260504202004 82 170 6.0 12.0 0.00 0.00 0.00 56 1007.4
20260504200004 81 171 5.0 15.0 0.00 0.00 0.00 58 1007.4
20260504195003 81 128 4.0 12.0 0.00 0.00 0.00 58 1007.4
20260504194003 81 176 4.0 9.0 0.00 0.00 0.00 58 1008.5
20260504193004 81 174 3.0 12.0 0.00 0.00 0.00 57 1008.5
20260504192003 81 211 5.0 12.0 0.00 0.00 0.00 57 1008.5
20260504191003 80 151 5.0 12.0 0.00 0.00 0.00 58 1008.5
20260504185003 79 181 5.0 15.0 0.00 0.00 0.00 58 1008.5
20260504184003 79 181 7.0 15.0 0.00 0.00 0.00 57 1008.5
20260504183004 79 172 5.0 12.0 0.00 0.00 0.00 58 1008.5
20260504182004 79 196 5.0 13.0 0.00 0.00 0.00 57 1008.9
20260504181004 78 233 3.0 10.0 0.00 0.00 0.00 59 1008.9
20260504180003 78 170 7.0 20.0 0.00 0.00 0.00 58 1008.9
20260504175003 78 183 6.0 14.0 0.00 0.00 0.00 58 1008.9
20260504174003 77 195 6.0 15.0 0.00 0.00 0.00 58 1010.1